Home   Weather   Auxerre   Past weeks

Flag for France Past Weather in Auxerre, Burgundy, France — Yesterday and Last 2 Weeks

Now
73 °F

Passing clouds.


Feels Like: 77 °F
Forecast: 54 / 82 °F
Wind: 7 mph from Northeast

Location: Troyes Airport

Current Time: Aug 30, 2016 at 1:14:28 PM

Latest Report: Aug 30, 2016 at 12:30 PM


Visibility: N/A

Pressure: 30.24 "Hg

Humidity: 57%

Dew Point: 57 °F

Location of AuxerreLocation

Past Weather in Auxerre — Graph

°F

Auxerre Temperature Yesterday

Maximum temperature yesterday: 73 °F (at 2:00 PM)
Minimum temperature yesterday: 59 °F (at 6:30 AM)
Average temperature yesterday: 67 °F

High & Low Weather Summary for the Past Weeks

 TemperatureHumidityPressure
High99 °F (Aug 26, 5:00 PM)100% (Aug 16, 6:30 AM)30.36 "Hg (Aug 16, 6:30 AM)
Low50 °F (Aug 22, 2:00 AM)25% (Aug 27, 2:30 PM)29.80 "Hg (Aug 17, 6:00 PM)
Average71 °F68%30.04 "Hg
* Reported Aug 15 12:00 PM — Aug 30 12:00 PM, Auxerre, Weather by CustomWeather, © 2016

Note: Actual official high and low records may vary slightly from our data, if they occured in-between our weather recording intervals... More about our weather records

Advertising

Auxerre Weather History for the Previous 24 Hours

Scroll right to see more
 ConditionsComfort  
Time TempWeatherWind HumidityBarometerVisibility
12:00 PM
Tue, Aug 30
73 °FPassing clouds.8 mph61%30.24 "HgN/A
11:30 AM72 °FPassing clouds.8 mph65%30.24 "HgN/A
11:00 AM70 °FPassing clouds.7 mph69%30.24 "HgN/A
10:30 AM68 °FSunny.2 mph73%30.24 "Hg10 mi
10:00 AM66 °FSunny.3 mph73%30.24 "Hg10 mi
9:30 AM64 °FSunny.3 mph78%30.24 "Hg10 mi
9:00 AM63 °FPassing clouds.5 mph83%30.24 "HgN/A
8:30 AM59 °FSunny.2 mph94%30.24 "Hg10 mi
8:00 AM57 °FClear.3 mph94%30.24 "Hg5 mi
7:30 AM57 °FClear.7 mph94%30.24 "Hg5 mi
7:00 AM55 °FClear.6 mph100%30.21 "Hg6 mi
6:30 AM55 °FClear.6 mph100%30.21 "Hg5 mi
6:00 AM55 °FClear.7 mph94%30.21 "Hg5 mi
5:30 AM55 °FClear.8 mph100%30.21 "Hg10 mi
5:00 AM57 °FClear.8 mph94%30.21 "Hg10 mi
4:30 AM57 °FClear.6 mph94%30.21 "Hg10 mi
4:00 AM57 °FClear.7 mph94%30.21 "Hg10 mi
3:30 AM57 °FClear.6 mph100%30.24 "Hg10 mi
3:00 AM57 °FClear.5 mph94%30.21 "Hg10 mi
2:30 AM59 °FClear.8 mph94%30.24 "Hg10 mi
2:00 AM59 °FClear.7 mph94%30.24 "Hg10 mi
1:30 AM59 °FClear.6 mph94%30.21 "Hg10 mi
1:00 AM59 °FClear.6 mph94%30.24 "Hg10 mi
12:30 AM59 °FClear.7 mph88%30.21 "Hg10 mi
12:00 AM59 °FClear.6 mph88%30.21 "Hg10 mi
11:30 PM
Mon, Aug 29
59 °FClear.3 mph88%30.21 "Hg10 mi
11:00 PM63 °FClear.2 mph83%30.21 "Hg10 mi
10:30 PM61 °FClear.3 mph88%30.21 "Hg10 mi
10:00 PM63 °FClear.6 mph83%30.21 "Hg10 mi
9:30 PM64 °FClear.5 mph78%30.18 "Hg10 mi
9:00 PM68 °FPartly sunny.3 mph73%30.18 "HgN/A
8:30 PM68 °FPartly sunny.3 mph73%30.18 "HgN/A
8:00 PM70 °FSunny.6 mph69%30.18 "Hg10 mi
7:30 PM70 °FSunny.6 mph69%30.15 "Hg10 mi
7:00 PM70 °FPassing clouds.6 mph64%30.15 "HgN/A
6:30 PM70 °FSunny.8 mph64%30.15 "Hg10 mi
6:00 PM72 °FSunny.8 mph61%30.15 "Hg10 mi
5:30 PM72 °FPartly sunny.9 mph57%30.15 "HgN/A
5:00 PM72 °FPartly sunny.9 mph65%30.15 "HgN/A
4:30 PM72 °FPartly sunny.8 mph65%30.15 "HgN/A
4:00 PM72 °FBroken clouds.8 mph61%30.15 "HgN/A
3:30 PM72 °FBroken clouds.9 mph61%30.15 "HgN/A
3:00 PM72 °FPartly sunny.8 mph61%30.18 "HgN/A
2:30 PM70 °FBroken clouds.9 mph64%30.15 "HgN/A
2:00 PM73 °FPartly sunny.6 mph57%30.15 "HgN/A
1:30 PM70 °FOvercast.7 mph64%30.18 "HgN/A
1:00 PM70 °FPartly sunny.5 mph69%30.15 "HgN/A
Weather by CustomWeather, © 2016

See weather overviewHow to use our weather pages